This is the latest recevied weather packets stored in our database for station/object PD2SKZ-12. If no packets are shown the sender has not sent any weather packets the latest 10 day(s).
| Time | Temp. | Humidity | Pressure | Rain* | Wind** | Luminosity | Snow |
|---|---|---|---|---|---|---|---|
| 1777754656 | 16.67° C | 73% | 1015.4 hPa | 6.1 mm | - | - | - |
| 1777754025 | 16.67° C | 58% | 1014.7 hPa | 0 mm | - | - | - |
| 1777751926 | 16.67° C | 57% | 1014.4 hPa | 0 mm | - | - | - |
| 1777751626 | 16.67° C | 57% | 1014.4 hPa | 0 mm | - | - | - |
| 1777751346 | 16.67° C | 57% | 1014.4 hPa | 0 mm | - | - | - |
| 1777747366 | 17.22° C | 54% | 1014.6 hPa | 0 mm | - | - | - |
| 1777744366 | 18.33° C | 51% | 1014.8 hPa | 0 mm | - | - | - |
| 1777744066 | 18.89° C | 51% | 1014.8 hPa | 0 mm | - | - | - |
| 1777743166 | 19.44° C | 50% | 1014.8 hPa | 0 mm | - | - | - |
| 1777742266 | 21.11° C | 45% | 1014.9 hPa | 0 mm | - | - | - |
| 1777741366 | 22.78° C | 42% | 1015.1 hPa | 0 mm | - | - | - |
| 1777740466 | 22.78° C | 42% | 1015.5 hPa | 0 mm | - | - | - |
| 1777739866 | 23.33° C | 40% | 1015.7 hPa | 0 mm | - | - | - |
| 1777738086 | 22.78° C | 40% | 1016.1 hPa | 0 mm | - | - | - |
| 1777731767 | 23.89° C | 42% | 1017.2 hPa | 0 mm | - | - | - |
| 1777731466 | 22.78° C | 43% | 1017.2 hPa | 0 mm | - | - | - |
| 1777730566 | 23.33° C | 45% | 1017.5 hPa | 0 mm | - | - | - |
| 1777729367 | 21.67° C | 50% | 1017.7 hPa | 0 mm | - | - | - |
| 1777727536 | 22.78° C | 52% | 1018.1 hPa | 0 mm | - | - | - |
| 1777725466 | 21.11° C | 58% | 1018.2 hPa | 0 mm | - | - | - |
| 1777722466 | 22.22° C | 61% | 1018.7 hPa | 0 mm | - | - | - |
| 1777721886 | 21.67° C | 63% | 1018.7 hPa | 0 mm | - | - | - |
| 1777720667 | 20.56° C | 69% | 1018.9 hPa | 0 mm | - | - | - |
| 1777717369 | 20° C | 73% | 1019.1 hPa | 0 mm | - | - | - |
| 1777714987 | 18.89° C | 79% | 1019.1 hPa | 0 mm | - | - | - |
* Rain latest hour (hover to see other rain measurements)
** Current wind speed in m/s (hover to see current wind gust speed)